Morgantown, WV

12:49 AM EDT on April 24, 2017 (GMT -0400)
Morgantown Municipal-Hart

Weather History for KMGW - March, 2015

Change the Weather History Date:

Wednesday, March 11, 2015

  Actual Average Record
Temperature  
Mean Temperature 50 °F 40 °F  
Max Temperature 63 °F 50 °F 75 °F (1977)
Min Temperature 37 °F 31 °F 5 °F (1960)
Degree Days  
Heating Degree Days 15 25  
Month to date heating degree days 329 289  
Since 1 July heating degree days 4453 4178  
Cooling Degree Days 0 0  
Month to date cooling degree days 0 0  
Year to date cooling degree days 0 0  
Growing Degree Days 1 (Base 50)    
Moisture  
Dew Point 43 °F    
Average Humidity 66    
Maximum Humidity 93    
Minimum Humidity 39    
Precipitation  
Precipitation 0.01 in 0.12 in 0.67 in (1955)
Month to date precipitation 4.70 1.21  
Year to date precipitation 8.99 6.62  
Sea Level Pressure  
Sea Level Pressure 30.11 in    
Wind  
Wind Speed 4 mph (West)    
Max Wind Speed 14 mph    
Max Gust Speed 18 mph    
Visibility 4 miles    
Events Fog    
T = Trace of Precipitation, MM = Missing Value Source: NWS Daily Summary

Daily Weather History Graph

Daily Weather History Graph

Search for Another Location

Airport or City:

Trip Planner

Search our weather history database for the weather conditions in past years. The results will help you decide how hot, cold, wet, or windy it might be!

Date:

Astronomy

Mar. 11, 2015 Rise Set
Actual Time 7:37 AM EDT 7:22 PM EDT
Civil Twilight 7:10 AM EDT 7:49 PM EDT
Nautical Twilight 6:39 AM EDT 8:20 PM EDT
Astronomical Twilight 6:08 AM EDT 8:51 PM EDT
Moon 12:08 AM EDT (3/11) 10:45 AM EDT (3/11)
Length of Visible Light 12h 38m
Length of Day
11h 44m
Waning Gibbous, 71% of the Moon is Illuminated
Mar 11
Waning Gibbous
Mar 13
Last Quarter
Mar 20
New
Mar 27
First Quarter
Apr 4
Full

Hourly Weather History & Observations

Time (EDT) Temp. Windchill Dew Point Humidity Pressure Visibility Wind Dir Wind Speed Gust Speed Precip Events Conditions
12:07 AM 46.9 °F - 44.1 °F 90% 30.00 in 0.5 mi South 3.5 mph - N/A Fog Fog
12:23 AM 46.9 °F - 45.0 °F 93% 30.00 in 0.5 mi South 3.5 mph - N/A Fog Fog
12:41 AM 50.0 °F - 46.9 °F 89% 30.00 in 1.5 mi SSW 4.6 mph - N/A   Overcast
12:53 AM 50.0 °F - 46.9 °F 89% 30.00 in 1.8 mi South 3.5 mph - N/A   Overcast
1:28 AM 48.0 °F - 45.0 °F 89% 29.99 in 0.5 mi Calm Calm - N/A Fog Fog
1:35 AM 48.0 °F - 46.0 °F 93% 29.99 in 0.2 mi Calm Calm - N/A Fog Fog
1:53 AM 48.0 °F - 45.0 °F 89% 30.01 in 0.5 mi WNW 4.6 mph - N/A Fog Fog
2:04 AM 46.9 °F - 45.0 °F 93% 30.01 in 0.2 mi NW 3.5 mph - N/A Fog Fog
2:45 AM 46.9 °F - 44.1 °F 90% 30.02 in 0.5 mi NNW 3.5 mph - 0.01 in Fog Fog
2:53 AM 46.9 °F - 44.1 °F 90% 30.04 in 0.5 mi Calm Calm - 0.01 in Fog Fog
3:21 AM 46.9 °F - 45.0 °F 93% 30.03 in 1.0 mi Calm Calm - N/A   Mist
3:29 AM 46.9 °F - 45.0 °F 93% 30.04 in 0.5 mi Calm Calm - N/A Fog Fog
3:48 AM 46.4 °F - 44.6 °F 93% 30.03 in 1.2 mi Calm Calm - N/A   Overcast
3:53 AM 46.9 °F - 45.0 °F 93% 30.04 in 0.8 mi Calm Calm - N/A   Overcast
4:05 AM 48.0 °F - 45.0 °F 89% 30.04 in 2.0 mi Calm Calm - N/A   Overcast
4:15 AM 46.9 °F - 45.0 °F 93% 30.04 in 0.8 mi Calm Calm - N/A   Overcast
4:32 AM 48.0 °F - 45.0 °F 89% 30.04 in 2.5 mi Calm Calm - N/A   Overcast
4:39 AM 48.0 °F - 45.0 °F 89% 30.04 in 4.0 mi Calm Calm - N/A   Overcast
4:46 AM 48.0 °F - 45.0 °F 89% 30.05 in 1.8 mi Calm Calm - N/A   Overcast
4:53 AM 48.0 °F - 44.1 °F 86% 30.05 in 1.2 mi Calm Calm - N/A   Overcast
5:00 AM 48.0 °F - 45.0 °F 89% 30.04 in 2.0 mi WNW 3.5 mph - N/A   Overcast
5:07 AM 48.9 °F - 45.0 °F 86% 30.04 in 7.0 mi Calm Calm - N/A   Overcast
5:53 AM 48.0 °F - 45.0 °F 89% 30.08 in 6.0 mi Calm Calm - N/A   Overcast
6:44 AM 48.0 °F - 45.0 °F 89% 30.09 in 2.0 mi Calm Calm - N/A   Overcast
6:53 AM 48.0 °F - 45.0 °F 89% 30.10 in 2.5 mi Calm Calm - N/A   Overcast
7:03 AM 46.9 °F - 45.0 °F 93% 30.10 in 0.8 mi Calm Calm - N/A   Overcast
7:14 AM 48.0 °F - 45.0 °F 89% 30.10 in 2.5 mi Calm Calm - N/A   Overcast
7:21 AM 48.0 °F - 45.0 °F 89% 30.11 in 5.0 mi Calm Calm - N/A   Overcast
7:42 AM 48.0 °F - 45.0 °F 89% 30.11 in 5.0 mi Calm Calm - N/A   Overcast
7:53 AM 48.0 °F - 45.0 °F 89% 30.13 in 2.5 mi Calm Calm - N/A   Overcast
8:06 AM 48.0 °F - 45.0 °F 89% 30.12 in 3.0 mi Calm Calm - N/A   Overcast
8:22 AM 48.0 °F - 45.0 °F 89% 30.12 in 4.0 mi Calm Calm - N/A   Overcast
8:46 AM 48.0 °F - 45.0 °F 89% 30.13 in 4.0 mi Calm Calm - N/A   Overcast
8:53 AM 48.9 °F - 45.0 °F 86% 30.14 in 5.0 mi Calm Calm - N/A   Overcast
9:30 AM 50.0 °F - 45.0 °F 83% 30.15 in 10.0 mi Calm Calm - N/A   Overcast
9:53 AM 48.9 °F - 44.1 °F 83% 30.16 in 10.0 mi Calm Calm - N/A   Scattered Clouds
10:37 AM 51.1 °F - 44.1 °F 77% 30.16 in 10.0 mi WNW 3.5 mph - N/A   Mostly Cloudy
10:53 AM 51.1 °F - 44.1 °F 77% 30.17 in 10.0 mi SSW 5.8 mph - N/A   Scattered Clouds
11:53 AM 54.0 °F - 42.1 °F 64% 30.16 in 10.0 mi Variable 3.5 mph - N/A   Partly Cloudy
12:53 PM 55.9 °F - 41.0 °F 57% 30.17 in 10.0 mi North 3.5 mph - N/A   Clear
1:53 PM 57.0 °F - 39.9 °F 53% 30.16 in 10.0 mi WSW 5.8 mph - N/A   Clear
2:53 PM 60.1 °F - 39.0 °F 46% 30.14 in 10.0 mi Variable 5.8 mph - N/A   Clear
3:53 PM 62.1 °F - 37.0 °F 39% 30.14 in 10.0 mi Variable 5.8 mph - N/A   Clear
4:53 PM 63.0 °F - 37.9 °F 40% 30.15 in 10.0 mi NNW 8.1 mph - N/A   Partly Cloudy
5:53 PM 60.1 °F - 36.0 °F 41% 30.17 in 10.0 mi NNW 10.4 mph 18.4 mph N/A   Clear
6:53 PM 55.0 °F - 39.9 °F 57% 30.23 in 10.0 mi North 6.9 mph - N/A   Clear
7:53 PM 48.0 °F - 37.9 °F 68% 30.28 in 8.0 mi North 12.7 mph - N/A   Clear
8:53 PM 45.0 °F 40.6 °F 37.0 °F 74% 30.31 in 6.0 mi North 8.1 mph - N/A   Haze
9:53 PM 43.0 °F - 36.0 °F 76% 30.35 in 5.0 mi Calm Calm - N/A   Haze
10:53 PM 41.0 °F - 35.1 °F 79% 30.37 in 4.0 mi Calm Calm - N/A   Haze
11:49 PM 39.2 °F 37.0 °F 35.6 °F 87% 30.37 in 2.5 mi SSW 3.5 mph - N/A   Haze
11:53 PM 39.9 °F 37.8 °F 35.1 °F 83% 30.39 in 2.5 mi SSW 3.5 mph - N/A   Haze